This demonstration page uses our WeatherBlox Daily Observations layout. Learn more.

38.88101, -77.10428

Hourly Observations for January 5, 2016

Temp ( °F °C ) Dew Point ( °F °C ) Humidity (%) Winds ( mph kmh ) Pressure ( in mb ) Visibility ( mi km ) Precip ( " mm )
12:52 am 00:52 Clear 20 -6.7 1 -17.2 43 43 N 23 37 30.48 1032 10 16.0934 0 0
1:52 am 01:52 Clear 19 -7.2 1 -17.2 45 45 N 21 33 30.5 1033 10 16.0934 0 0
2:52 am 02:52 Clear 17 -8.3 0 -17.8 47 47 N 18 30 30.53 1034 10 16.0934 0 0
3:52 am 03:52 Clear 17 -8.3 1 -17.2 49 49 NNW 22 35 30.53 1034 10 16.0934 0 0
4:52 am 04:52 Clear 16 -8.9 1 -17.2 51 51 N 15 24 30.55 1035 10 16.0934 0 0
5:52 am 05:52 Clear 16 -8.9 2 -16.7 54 54 NNW 15 24 30.57 1035 10 16.0934 0 0
6:52 am 06:52 Clear 16 -8.9 2 -16.7 54 54 NNW 16 26 30.59 1036 10 16.0934 0 0
7:52 am 07:52 Sunny 17 -8.3 3 -16.1 54 54 NNW 13 20 30.62 1037 10 16.0934 0 0
8:52 am 08:52 Sunny 19 -7.2 3 -16.1 49 49 N 15 24 30.64 1038 10 16.0934 0 0
9:52 am 09:52 Sunny 22 -5.6 3 -16.1 44 44 N 10 17 30.67 1039 10 16.0934 0 0
10:52 am 10:52 Sunny 25 -3.9 3 -16.1 39 39 NNW 10 17 30.68 1039 10 16.0934 0 0
11:52 am 11:52 Sunny 28 -2.2 4 -15.6 35 35 NNW 8 13 30.67 1039 10 16.0934 0 0
12:52 pm 12:52 Sunny 30 -1.1 3 -16.1 31 31 N 6 9 30.65 1038 10 16.0934 0 0
1:52 pm 13:52 Sunny 33 0.6 4 -15.6 29 29 NNW 8 13 30.63 1037 10 16.0934 0 0
2:52 pm 14:52 Sunny 33 0.6 4 -15.6 29 29 NW 7 11 30.62 1037 10 16.0934 0 0
3:52 pm 15:52 Sunny 33 0.6 3 -16.1 28 28 VRB 3 6 30.63 1037 10 16.0934 0 0
4:52 pm 16:52 Sunny 32 0 3 -16.1 29 29 NW 3 6 30.64 1038 10 16.0934 0 0
5:52 pm 17:52 Clear 31 -0.6 5 -15 33 33 NW 8 13 30.65 1038 10 16.0934 0 0
6:52 pm 18:52 Clear 30 -1.1 6 -14.4 36 36 NW 8 13 30.66 1038 10 16.0934 0 0
7:52 pm 19:52 Clear 28 -2.2 6 -14.4 39 39 NNW 6 9 30.67 1039 10 16.0934 0 0
8:52 pm 20:52 Clear 28 -2.2 6 -14.4 39 39 NNW 6 9 30.66 1038 10 16.0934 0 0
9:52 pm 21:52 Clear 28 -2.2 8 -13.3 43 43 Calm 30.66 1038 10 16.0934 0 0
10:52 pm 22:52 Clear 27 -2.8 10 -12.2 49 49 WSW 3 6 30.65 1038 10 16.0934 0 0
11:52 pm 23:52 Clear 27 -2.8 12 -11.1 53 53 Calm 30.64 1038 10 16.0934 0 0

Powered by AerisWeather